AirNav   Everest Fuels
 
 1451 users online  

87I Yazoo County Airport
Yazoo City, Mississippi, USA

GOING TO YAZOO CITY?


FAA INFORMATION EFFECTIVE 03 JANUARY 2019

Location

FAA Identifier: 87I
Lat/Long: 32-53-00.6000N / 090-27-50.4000W
32-53.010000N / 090-27.840000W
32.8835000 / -90.4640000
(estimated)
Elevation: 105.3 ft. / 32.1 m (surveyed)
Variation: 00E (2010)
From city: 4 miles NW of YAZOO CITY, MS
Time zone: UTC -6 (UTC -5 during Daylight Saving Time)
Zip code: 39194

Airport Operations

Airport use: Open to the public
Activation date: 11/1989
Control tower: no
ARTCC: MEMPHIS CENTER
FSS: GREENWOOD FLIGHT SERVICE STATION
NOTAMs facility: GWO (NOTAM-D service available)
Attendance: UNATNDD
Wind indicator: lighted
Segmented circle: yes
Lights: MIRL RY 17/35 PRESET LOW INTST DUSK-2200; AFTER 2200 TO INCR INTST ACTVT - CTAF. PAPI RY 17 & 35 OPER CONT.
Beacon: white-green (lighted land airport)
Operates sunset to sunrise.

Airport Communications

CTAF/UNICOM: 122.8
  • APCH/DEP SERVICE PRVDD BY MEMPHIS ARTCC ON FREQS 132.5/259.1 (JACKSON RCAG).

Nearby radio navigation aids

VOR radial/distance  VOR name  Freq  Var
MHZr327/32.6MAGNOLIA VORTAC113.2001W
SQSr192/36.1SIDON VORTAC114.7003E

Airport Services

Parking: tiedowns
Airframe service: MINOR
EMERGENCY AIRFRAME AND POWERPLANT REPAIRS CALL 662-746-8999.
Powerplant service: MINOR

Runway Information

Runway 17/35

Dimensions: 5001 x 100 ft. / 1524 x 30 m
Surface: asphalt, in good condition
Weight bearing capacity: 
Single wheel: 30.0
Double tandem: 64.0
Runway edge lights: medium intensity
RUNWAY 17  RUNWAY 35
Latitude: 32-53.419198N32-52.599020N
Longitude: 090-27.889163W090-27.789462W
Elevation: 104.2 ft.104.2 ft.
Traffic pattern: leftleft
Runway heading: 174354
Markings: nonprecision, in good conditionnonprecision, in good condition
Visual slope indicator: 2-light PAPI on left (3.00 degrees glide path)2-light PAPI on left (3.00 degrees glide path)
Touchdown point: yes, no lightsyes, no lights
Obstructions: 80 ft. trees, 3000 ft. from runway, 250 ft. left of centerline, 35:1 slope to clear53 ft. trees, 1590 ft. from runway, 26:1 slope to clear

Airport Ownership and Management from official FAA records

Ownership: Publicly-owned
Owner: COUNTY OF YAZOO
P.O.BOX 172
YAZOO CITY, MS 39194
Phone 662-746-1273
Manager: JODY CARSON
57 CODY COVE
YAZOO CITY, MS 39194
Phone 662-571-4045

Airport Operational Statistics

Aircraft based on the field: 11
Single engine airplanes: 10
Helicopters: 1
    
Aircraft operations: avg 27/day *
86% local general aviation
12% transient general aviation
1% military
* for 12-month period ending 16 February 2018

Instrument Procedures

NOTE: All procedures below are presented as PDF files. If you need a reader for these files, you should download the free Adobe Reader.

NOT FOR NAVIGATION. Please procure official charts for flight.
FAA instrument procedures published for use from 3 January 2019 at 0901Z to 31 January 2019 at 0900Z.

 
IAPs - Instrument Approach Procedures
RNAV (GPS) RWY 17   download (170KB)
RNAV (GPS) RWY 35   download (164KB)
NOTE: Special Take-Off Minimums/Departure Procedures apply   download (116KB)

Other nearby airports with instrument procedures:

19M - C A Moore Airport (26 nm NE)
KMBO - Bruce Campbell Field Airport (32 nm SE)
KJVW - John Bell Williams Airport (35 nm S)
KHKS - Hawkins Field Airport (35 nm S)
KIDL - Indianola Municipal Airport (38 nm N)
 
Loc | Ops | Rwys | IFR | FBO | Links
Com | Nav | Svcs | Stats | Notes
Area around 87I (Yazoo County Airport)
 
Road maps at: MapQuest Bing Google
 
Aerial photo
WARNING: Photo may not be current or correct
Aerial photo of 87I (Yazoo County Airport)
Photo by Bart Barrack
Photo taken 18-Nov-2008
from 9500 feet MSL

Do you have a better or more recent aerial photo of Yazoo County Airport that you would like to share? If so, please send us your photo.

 
Sectional chart

 
Airport distance calculator
Flying to Yazoo County Airport? Find the distance to fly.

From to 87I

Sunrise and sunset
Times for 23-Jan-2019
 Local
(UTC-6)
 Zulu
(UTC)
Morning civil twilight06:3712:37
Sunrise07:0313:03
Sunset17:2523:25
Evening civil twilight17:5123:51

Current date and time
Zulu (UTC)  23-Jan-2019 15:08:15
Local (UTC-6)  23-Jan-2019 09:08:15
 
METAR
KMBO 
32nm SE 
231455Z AUTO 31005KT 5SM OVC007 11/11 A2992 RMK AO2 PWINO
KJVW 
35nm S 
231455Z AUTO VRB04KT 9SM -DZ SCT004 BKN007 OVC035 12/12 A2993 RMK AO2
KHKS 
35nm S 
231453Z AUTO 34006G18KT 5SM -RA BR BKN007 OVC030 12/12 A2992 RMK AO2 WSHFT 1344 SLP126 P0011 60018 T01170117 53020
KJAN 
39nm SE 
231454Z 31008KT 10SM -RA BKN006 12/11 A2991 RMK AO2 PK WND 25028/1418 WSHFT 1416 SLP128 P0007 60007 T01220111 53015
KGWO 
42nm NE 
231453Z AUTO 36003KT 2 1/2SM RA BR SCT005 BKN011 OVC047 11/11 A2991 RMK AO2 SLP129 P0013 60024 T01110106 50012
KTVR 
43nm SW 
231453Z AUTO 25004KT 1 1/4SM +RA BR OVC007 12/11 A2999 RMK AO2 PRESRR SLP161 P0016 60027 T01170106 53026
KGLH 
45nm NW 
231503Z 29011KT 2 1/2SM RA BKN005 BKN012 OVC016 10/09 A2995 RMK AO2 P0005 T01000089
KVKS 
46nm SW 
231455Z AUTO 29004KT 3SM BR BKN003 BKN009 BKN013 12/12 A2997 RMK A01
TAF
KHKS 
35nm S 
231348Z 2314/2412 19010KT 2SM -RA BR BKN012 OVC040 FM231430 30015G20KT 4SM RA BR BKN012 OVC030 FM240000 31011KT P6SM OVC015 FM240600 32005KT P6SM OVC050 FM240900 32005KT P6SM SKC
KJAN 
39nm SE 
231239Z 2313/2412 17011KT P6SM SCT015 BKN070 OVC090 FM231330 29023G30KT 4SM RA BR OVC007 FM231415 30015G20KT 4SM RA BR BKN012 OVC030 FM240000 31011KT P6SM OVC015 FM240600 32005KT P6SM OVC050 FM240900 32005KT P6SM SKC
KGWO 
42nm NE 
231357Z 2314/2412 36007KT 2SM -RA BR OVC025 FM231700 30012KT 4SM RA BR BKN008 FM232200 31011KT P6SM OVC015 FM240200 31008KT P6SM BKN050 FM240600 31004KT P6SM SCT100
NOTAMs
Click for the latest NOTAMs
NOTAMs are issued by the DoD/FAA and will open in a separate window not controlled by AirNav.

 

 
 

Would you like to see your business listed on this page?

 If your business provides an interesting product or service to pilots, flight crews, aircraft, or users of the Yazoo County Airport, you should consider listing it here.  To start the listing process, click on the button below
 
Add a business
 

Other Pages about Yazoo County Airport

www.yazoocounty.net/yazoo-county-airport
 
Update a link
 
Copyright © AirNav, LLC. All rights reserved. Privacy Policy  Contact